Lid_Strength_Index
1 1 0 -0 -0 -0 -1 -1 -1 -0 -0 -1 -1 -1 -1 -1 -0 4 6 4 2 -2 -1 4 4 4 4 5 5 6 8 9 9 10 9 9 9 9 9 9 9 8 8 9 8
1 1 1 0 0 0 -0 -0 -0 -0 -0 -0 -0 -1 -1 -0 4 6 2 -1 -1 -1 5 5 5 5 5 6 6 7 8 9 8 8 8 8 8 8 9 9 9 9 9 10 9
1 1 1 1 1 0 -0 -0 -0 -0 -0 -0 -0 -0 -0 0 5 5 1 -1 -1 0 4 5 5 6 6 6 7 8 8 8 8 8 8 8 9 8 8 8 7 7 7 9 9
1 1 1 1 1 0 0 -0 -0 -0 -0 -0 -1 -0 0 3 8 5 -0 1 0 3 5 6 6 6 7 8 7 8 8 8 8 8 8 9 8 9 8 7 7 7 7 9 9
2 2 2 1 1 0 0 0 -0 -0 -0 -0 -1 -0 2 5 5 4 2 2 4 5 6 6 6 7 7 8 8 8 8 8 7 8 8 9 8 8 8 7 7 9 9 9 9
3 3 2 2 1 1 0 0 -0 -0 -0 -0 -1 -0 4 7 4 4 5 5 5 5 6 6 6 6 7 7 8 8 8 8 8 8 8 9 8 10 7 9 8 9 9 9 9
2 3 3 2 2 1 1 0 -0 -0 0 -0 -1 2 5 6 4 4 5 6 6 6 6 7 6 6 7 9 8 9 9 8 9 9 9 9 10 9 7 10 9 9 9 9 9
3 3 3 2 2 1 1 0 0 0 0 -0 -0 3 6 4 3 5 5 6 6 6 6 6 6 7 8 8 9 10 10 10 9 9 9 9 11 7 7 9 9 8 9 10 10
3 3 3 2 2 2 1 1 1 1 0 0 3 4 6 3 5 5 5 6 6 6 6 7 6 7 8 8 9 9 11 11 10 9 10 10 10 8 8 10 9 8 8 9 10
4 4 3 2 2 2 1 1 1 1 2 4 5 6 6 7 5 6 6 6 7 6 7 7 7 8 9 9 12 10 11 11 11 10 11 11 11 9 8 9 9 8 7 9 10
4 4 3 3 2 2 2 4 6 7 6 6 7 7 8 5 5 6 7 7 7 8 9 8 9 10 9 8 9 10 11 11 9 11 11 11 11 10 9 9 9 8 8 9 10
4 4 3 3 3 2 4 6 7 7 10 7 8 8 8 6 8 7 7 8 8 9 9 10 11 8 9 10 10 10 11 10 10 12 12 12 13 11 10 9 9 8 7 8 10
4 4 4 3 3 5 7 7 5 5 9 8 8 8 8 7 8 8 8 8 9 10 10 10 9 11 10 11 11 11 11 10 12 12 12 14 13 13 11 11 10 9 9 9 10
4 4 4 4 5 5 8 7 6 6 12 12 11 9 8 8 10 10 9 9 10 10 11 10 10 11 11 11 10 12 10 11 12 13 14 13 16 12 12 12 11 9 10 10 11
3 3 4 4 6 7 8 6 6 9 18 12 12 8 9 10 10 10 9 10 10 11 10 10 12 12 11 10 10 11 12 12 13 13 15 13 16 14 15 14 12 10 9 10 10
3 3 4 5 6 6 7 7 9 14 19 13 11 11 11 11 11 11 10 10 10 11 11 11 11 11 10 13 12 13 13 14 15 15 17 14 15 15 14 13 12 10 10 10 10
3 3 4 5 7 7 7 8 14 18 15 15 13 12 12 12 12 12 12 13 12 13 13 12 12 12 11 12 12 12 12 14 15 17 17 16 18 15 12 11 11 9 8 10 10
3 4 4 4 7 7 9 11 18 14 14 13 13 13 12 12 12 12 13 13 12 12 13 12 13 13 11 10 11 13 12 14 19 17 16 18 19 14 12 10 10 11 11 12 11
4 4 6 5 7 7 10 15 15 13 12 14 13 14 13 13 13 13 13 12 11 11 12 13 13 13 14 13 12 15 15 12 14 20 18 15 13 12 12 12 12 12 11 11 11
5 6 7 5 6 8 13 14 13 11 13 12 14 12 14 13 14 13 13 12 11 11 10 12 15 14 16 14 15 15 13 16 14 18 18 16 15 15 13 13 12 12 12 10 11
5 9 6 6 6 10 15 14 12 11 12 13 13 13 13 13 13 14 13 12 11 12 10 10 11 14 14 15 14 16 15 15 14 15 16 18 17 14 13 11 12 11 10 10 10
6 10 7 6 12 11 14 13 12 12 11 12 12 12 13 13 14 14 14 12 10 12 14 11 12 13 13 15 15 14 14 14 16 17 16 15 16 12 11 11 11 10 11 10 10
8 8 7 6 14 14 12 12 12 12 12 12 12 12 12 14 16 13 13 11 11 12 13 13 14 16 15 16 17 16 15 14 14 14 16 17 17 11 10 11 11 11 10 10 10
6 11 10 9 9 11 13 12 13 11 12 13 13 12 14 14 13 13 14 12 11 11 11 11 14 14 17 15 15 16 15 15 15 16 16 16 14 12 11 11 10 10 11 10 10
6 9 10 14 13 11 10 11 12 13 11 11 13 13 13 15 14 14 12 12 13 12 12 12 15 14 13 12 13 14 14 15 16 15 16 14 14 12 11 11 10 9 10 10 10
7 9 9 10 10 11 11 12 12 11 10 12 13 11 12 14 13 13 12 13 13 13 13 14 15 14 16 14 14 15 14 13 14 14 14 14 15 12 11 10 11 10 10 10 10
4 4 7 10 11 12 12 12 11 10 9 9 10 11 12 11 10 9 9 10 11 12 13 14 15 15 17 14 14 17 15 14 13 12 13 15 12 10 11 11 10 10 10 11 10